TimeCST,TemperatureF,Dew PointF,Humidity,Sea Level PressureIn,VisibilityMPH,Wind Direction,Wind SpeedMPH,Gust SpeedMPH,PrecipitationIn,Events,Conditions,WindDirDegrees,DateUTC
12:15 AM,28.9,23.0,78,30.02,10.0,NNE,9.2,-,N/A,,Overcast,20,2012-12-27 06:15:00
12:35 AM,28.9,22.6,77,30.02,10.0,NNE,10.4,-,N/A,,Overcast,20,2012-12-27 06:35:00
12:55 AM,28.9,22.6,77,30.03,10.0,NNE,8.1,-,N/A,,Overcast,20,2012-12-27 06:55:00
1:15 AM,28.9,22.6,77,30.03,10.0,North,4.6,-,N/A,,Overcast,10,2012-12-27 07:15:00
1:35 AM,28.9,23.0,78,30.04,10.0,North,4.6,-,N/A,,Overcast,360,2012-12-27 07:35:00
1:55 AM,28.9,23.0,78,30.04,10.0,North,5.8,-,N/A,,Overcast,10,2012-12-27 07:55:00
2:35 AM,29.3,23.9,80,30.05,10.0,North,4.6,-,N/A,,Overcast,350,2012-12-27 08:35:00
2:55 AM,29.7,24.4,81,30.06,10.0,North,6.9,-,N/A,,Overcast,350,2012-12-27 08:55:00
3:15 AM,29.7,24.8,82,30.06,10.0,North,6.9,-,N/A,,Overcast,360,2012-12-27 09:15:00
3:55 AM,29.7,24.8,82,30.08,10.0,North,4.6,-,N/A,,Overcast,10,2012-12-27 09:55:00
4:15 AM,29.7,24.8,82,30.08,10.0,North,4.6,-,N/A,,Overcast,360,2012-12-27 10:15:00
4:35 AM,29.5,25.2,84,30.08,10.0,ENE,3.5,-,N/A,,Overcast,60,2012-12-27 10:35:00
4:55 AM,28.4,24.4,85,30.08,10.0,ENE,5.8,-,N/A,,Overcast,60,2012-12-27 10:55:00
5:15 AM,28.0,23.9,84,30.09,10.0,East,4.6,-,N/A,,Overcast,80,2012-12-27 11:15:00
5:35 AM,27.5,23.7,86,30.09,10.0,ENE,5.8,-,N/A,,Overcast,60,2012-12-27 11:35:00
5:55 AM,27.1,23.0,84,30.10,10.0,ENE,5.8,-,N/A,,Overcast,70,2012-12-27 11:55:00
6:15 AM,27.0,23.0,85,30.11,10.0,Calm,Calm,-,N/A,,Overcast,0,2012-12-27 12:15:00
6:35 AM,27.1,23.4,86,30.11,10.0,Calm,Calm,-,N/A,,Overcast,0,2012-12-27 12:35:00
6:55 AM,27.0,23.0,85,30.12,10.0,Calm,Calm,-,N/A,,Overcast,0,2012-12-27 12:55:00
7:15 AM,27.0,22.8,84,30.11,10.0,Calm,Calm,-,N/A,,Overcast,0,2012-12-27 13:15:00
7:35 AM,27.0,23.0,85,30.12,10.0,Calm,Calm,-,N/A,,Overcast,0,2012-12-27 13:35:00
7:55 AM,27.0,23.5,87,30.12,10.0,Calm,Calm,-,N/A,,Overcast,0,2012-12-27 13:55:00
8:15 AM,27.1,23.0,84,30.13,10.0,Calm,Calm,-,N/A,,Overcast,0,2012-12-27 14:15:00
8:35 AM,27.3,23.9,87,30.14,10.0,Calm,Calm,-,N/A,,Overcast,0,2012-12-27 14:35:00
9:15 AM,28.4,24.1,84,30.14,10.0,Calm,Calm,-,N/A,,Overcast,0,2012-12-27 15:15:00
9:35 AM,28.4,23.9,83,30.15,10.0,Calm,Calm,-,N/A,,Overcast,0,2012-12-27 15:35:00
9:55 AM,29.3,23.9,80,30.15,10.0,Calm,Calm,-,N/A,,Overcast,0,2012-12-27 15:55:00
10:15 AM,29.3,23.7,80,30.15,10.0,East,3.5,-,N/A,,Overcast,90,2012-12-27 16:15:00
10:35 AM,29.1,23.9,81,30.15,10.0,Calm,Calm,-,N/A,,Overcast,0,2012-12-27 16:35:00
10:55 AM,29.1,24.3,82,30.16,10.0,Calm,Calm,-,N/A,,Overcast,0,2012-12-27 16:55:00
11:35 AM,29.5,25.2,84,30.15,10.0,Calm,Calm,-,N/A,,Overcast,0,2012-12-27 17:35:00
11:55 AM,29.8,25.5,84,30.13,10.0,Calm,Calm,-,N/A,,Overcast,0,2012-12-27 17:55:00
12:15 PM,30.0,25.5,83,30.12,10.0,Calm,Calm,-,N/A,,Overcast,0,2012-12-27 18:15:00
12:35 PM,30.2,25.2,82,30.12,10.0,Calm,Calm,-,N/A,,Overcast,0,2012-12-27 18:35:00
12:55 PM,32.0,25.5,77,30.11,10.0,Calm,Calm,-,N/A,,Overcast,0,2012-12-27 18:55:00
1:15 PM,31.1,25.7,80,30.11,10.0,Calm,Calm,-,N/A,,Overcast,0,2012-12-27 19:15:00
1:35 PM,32.2,25.7,77,30.10,10.0,Calm,Calm,-,N/A,,Mostly Cloudy,0,2012-12-27 19:35:00
1:55 PM,32.0,25.7,78,30.10,10.0,Calm,Calm,-,N/A,,Mostly Cloudy,0,2012-12-27 19:55:00
2:15 PM,32.0,25.9,78,30.11,10.0,Calm,Calm,-,N/A,,Overcast,0,2012-12-27 20:15:00
2:35 PM,32.0,26.2,79,30.11,10.0,South,3.5,-,N/A,,Overcast,180,2012-12-27 20:35:00
2:55 PM,32.0,26.8,81,30.11,10.0,Calm,Calm,-,N/A,,Overcast,0,2012-12-27 20:55:00
3:15 PM,32.0,27.1,82,30.11,10.0,Calm,Calm,-,N/A,,Overcast,0,2012-12-27 21:15:00
3:35 PM,32.0,27.1,82,30.12,10.0,South,3.5,-,N/A,,Overcast,180,2012-12-27 21:35:00
3:55 PM,31.6,27.9,86,30.13,10.0,SSW,3.5,-,N/A,,Overcast,200,2012-12-27 21:55:00
4:15 PM,31.6,28.0,87,30.14,10.0,SSW,3.5,-,N/A,,Overcast,210,2012-12-27 22:15:00
4:35 PM,32.0,27.9,85,30.14,10.0,Calm,Calm,-,N/A,,Overcast,0,2012-12-27 22:35:00
4:55 PM,31.8,27.9,85,30.15,10.0,Calm,Calm,-,N/A,,Overcast,0,2012-12-27 22:55:00
5:15 PM,31.6,28.2,87,30.14,10.0,Calm,Calm,-,N/A,,Overcast,0,2012-12-27 23:15:00
5:35 PM,31.3,27.0,84,30.14,10.0,Calm,Calm,-,N/A,,Overcast,0,2012-12-27 23:35:00
6:15 PM,31.1,27.9,88,30.15,10.0,Calm,Calm,-,N/A,,Overcast,0,2012-12-28 00:15:00
6:35 PM,30.9,28.2,90,30.15,10.0,Calm,Calm,-,N/A,,Overcast,0,2012-12-28 00:35:00
6:55 PM,30.6,28.0,90,30.14,10.0,Calm,Calm,-,N/A,,Overcast,0,2012-12-28 00:55:00
7:15 PM,30.6,27.9,90,30.14,10.0,ESE,3.5,-,N/A,,Overcast,110,2012-12-28 01:15:00
7:35 PM,30.2,28.0,92,30.13,7.0,ESE,4.6,-,N/A,,Overcast,110,2012-12-28 01:35:00
7:55 PM,29.8,28.0,93,30.13,7.0,ESE,3.5,-,N/A,,Overcast,120,2012-12-28 01:55:00
8:15 PM,29.7,28.0,94,30.13,7.0,Calm,Calm,-,N/A,,Overcast,0,2012-12-28 02:15:00
8:35 PM,29.5,28.2,95,30.13,7.0,Calm,Calm,-,N/A,,Overcast,0,2012-12-28 02:35:00
8:55 PM,29.3,28.2,96,30.14,7.0,Calm,Calm,-,N/A,,Overcast,0,2012-12-28 02:55:00
9:15 PM,29.7,28.2,94,30.14,7.0,Calm,Calm,-,N/A,,Overcast,0,2012-12-28 03:15:00
9:35 PM,29.1,27.5,94,30.14,7.0,Calm,Calm,-,N/A,,Overcast,0,2012-12-28 03:35:00
9:55 PM,29.1,27.5,94,30.14,7.0,South,3.5,-,N/A,,Overcast,190,2012-12-28 03:55:00
10:15 PM,29.3,27.5,93,30.14,7.0,South,3.5,-,N/A,,Overcast,190,2012-12-28 04:15:00
10:35 PM,29.1,27.0,92,30.14,10.0,Calm,Calm,-,N/A,,Overcast,0,2012-12-28 04:35:00
10:55 PM,28.6,26.4,92,30.14,7.0,Calm,Calm,-,N/A,,Mostly Cloudy,0,2012-12-28 04:55:00
11:35 PM,26.6,25.2,94,30.13,7.0,Calm,Calm,-,N/A,,Scattered Clouds,0,2012-12-28 05:35:00
11:55 PM,26.6,25.5,96,30.13,7.0,Calm,Calm,-,N/A,,Scattered Clouds,0,2012-12-28 05:55:00